Location: *
(28.3744°N, 81.5492°W)
Time: 03:26:00
(UTC+00:00)

USA 281 - Pass Details

Date: 15 June 2025
Orbit: 1078 x 1081 km, 106.0° (Epoch: 28 April)

Event Time Altitude Azimuth Distance (km) Brightness Sun altitude
Rises 08:08:28 0° 24° (NNE) 3,878 7.3 -25.3°
Reaches altitude 10° 08:11:00 10° 27° (NNE) 2,920 6.5 -24.9°
Maximum altitude 08:17:32 69° 110° (ESE) 1,149 3.3 -23.9°
Enters shadow 08:20:24 36° 183° (S) 1,651 3.8 -23.5°
